Regional Weather Roundup
Issued by NWS Green Bay, WI

Home | Current Version | Previous Version | Graphics & Text | Print | Product List | Glossary Off
Versions: 1 2 3 4 5 6 7 8 9 10 11 12 13 14 15 16 17 18 19 20 21 22 23 24 25 26 27 28 29 30 31 32 33 34 35 36 37 38 39 40 41 42 43 44 45 46 47 48 49 50

000
ASUS43 KGRB 210710
RWRGRB

NORTH-CENTRAL AND NORTHEAST WISCONSIN REGIONAL WEATHER ROUNDUP
NATIONAL WEATHER SERVICE GREEN BAY WI
100 AM CST SUN DEC 21 2014

WIZ005-009-010>012-018-019-210800-
NORTH CENTRAL WISCONSIN

CITY           SKY/WX    TMP DP  RH WIND       PRES   REMARKS
IRONWOOD       CLOUDY    30  27  86 S6        30.05F
MANITOWISH WTR CLOUDY    27  27 100 S7        30.07F FOG
ARBOR VITAE    CLOUDY    29  27  92 S6        30.08F FOG
EAGLE RIVER    CLOUDY    27  26  98 S3        30.09F FOG
LAND O LAKES   CLOUDY    28  26  95 S3        30.10S
RHINELANDER    CLOUDY    26  24  92 S6        30.10F FOG
PHILLIPS       CLOUDY    28  26  95 S8        30.08F FOG
ANTIGO         CLOUDY    25  25  98 S7        30.13S FOG
TOMAHAWK       LGT SNOW  27  26  94 CALM      30.11F
MERRILL        LGT SNOW  28  27  96 CALM      30.12S
$$

WIZ013-073-210800-
NORTHEAST WISCONSIN

CITY           SKY/WX    TMP DP  RH WIND       PRES   REMARKS
IRON MOUNTAIN  CLOUDY    27  23  85 S6        30.14F
MARINETTE      CLOUDY    28  25  86 CALM      30.19F
OCONTO         CLOUDY    28  27  94 CALM      30.20S
$$

WIZ017-030-035>037-045-210800-
CENTRAL WISCONSIN

CITY           SKY/WX    TMP DP  RH WIND       PRES   REMARKS
MEDFORD        CLOUDY    28  26  94 S8        30.10F FOG
WAUSAU         CLOUDY    28  25  88 S6        30.12F
MOSINEE        CLOUDY    28  28 100 SE6       30.14F FOG
MARSHFIELD     CLOUDY    29  26  89 S7        30.12F FOG
WISC RAPIDS    CLOUDY    29  25  85 S5        30.16F
STEVENS POINT  CLOUDY    27  26  93 S3        30.16S FOG
WAUPACA        CLOUDY    31  28  88 SE3       30.18S FOG
SHAWANO        CLOUDY    30  27  86 CALM      30.18F FOG
CLINTONVILLE   CLOUDY    30  27  86 S3        30.18S FOG
$$

WIZ038-039-048-051-210800-
FOX VALLEY

CITY           SKY/WX    TMP DP  RH WIND       PRES   REMARKS
NWS GREEN BAY  CLOUDY    30  27  88 S5        30.20S FOG
APPLETON       CLOUDY    28  28 100 SE5       30.19S FOG
OSHKOSH        CLOUDY    30  26  85 S6        30.18F FOG
FOND DU LAC    CLOUDY    30  26  85 S7        30.19F
$$

WIZ022-050-052-210800-
EAST CENTRAL WISCONSIN

CITY           SKY/WX    TMP DP  RH WIND       PRES   REMARKS
STURGEON BAY   CLOUDY    28  25  86 CALM      30.21F
MANITOWOC      CLOUDY    31  28  89 CALM      30.21F
SHEBOYGAN      CLOUDY    30  26  85 S3        30.20F
$$

LMZ563-521-522-541>543-210800-
LAKESHORE

STATION/POSITION TIME  TEMP    WIND        PRES    VSBY  WAVE
                       AIR SEA DIR/SP/G                  HT/PER
                 (UTC) (F)     (DEG/KT/KT) (MB)    (MI)  (FT/S)
SHEBOYGAN LKSHOR 0700   31 34  200/  7/  8 1024.0F
KEWAUNEE LKSHORE 0700   30      CALM  /  1 1021.9S
ALGOMA MARINA    0700             CALM       N/A
NORTHPORT PIER   0700   30     220/  2/  2 1022.7S
SISTER BAY LKSHO 0600             CALM       N/A
CHAMBERS ISLAND  0700   28      CALM  /  1 1022.7F
MENOMINEE LKSHOR 0700   29     200/  2/  2 1023.0F
$$


USA.gov is the U.S. government's official web portal to all federal, state and local government web resources and services.